Greensboro, NC

5:47 PM EDT on October 20, 2017 (GMT -0400)
Piedmont Triad International

Weather History for KGSO - July, 2012

Change the Weather History Date:

Thursday, July 5, 2012

  Actual Average Record
Temperature  
Mean Temperature 85 °F 78 °F  
Max Temperature 98 °F 88 °F 98 °F (1990)
Min Temperature 72 °F 69 °F 48 °F (1933)
Degree Days  
Heating Degree Days 0 0  
Month to date heating degree days 0 0  
Since 1 June heating degree days 4 6  
Since 1 July heating degree days 0 0  
Cooling Degree Days 20 13  
Month to date cooling degree days 96 65  
Year to date cooling degree days 641 531  
Since 1 June cooling degree days 379 372  
Growing Degree Days 34 (Base 50)    
Moisture  
Dew Point 67 °F    
Average Humidity 63    
Maximum Humidity 87    
Minimum Humidity 38    
Precipitation  
Precipitation 0.10 in 0.13 in 1.87 in (1922)
Month to date precipitation 0.32 0.63  
Year to date precipitation 16.01 21.06  
Sea Level Pressure  
Sea Level Pressure 29.91 in    
Wind  
Wind Speed 6 mph (West)    
Max Wind Speed 22 mph    
Max Gust Speed 35 mph    
Visibility 10 miles    
Events Thunderstorm    
T = Trace of Precipitation, MM = Missing Value Source: NWS Daily Summary

Daily Weather History Graph

Daily Weather History Graph

Search for Another Location

Airport or City:

Trip Planner

Search our weather history database for the weather conditions in past years. The results will help you decide how hot, cold, wet, or windy it might be!

Date:

Astronomy

Jul. 05, 2012 Rise Set
Actual Time 6:08 AM EDT 8:40 PM EDT
Civil Twilight 5:38 AM EDT 9:10 PM EDT
Nautical Twilight 5:01 AM EDT 9:47 PM EDT
Astronomical Twilight 4:20 AM EDT 10:28 PM EDT
Moon 10:01 PM EDT (7/5) 8:13 AM EDT (7/5)
Length of Visible Light 15h 31m
Length of Day
14h 31m
Waning Gibbous, 95% of the Moon is Illuminated
Jul 5
Waning Gibbous
Jul 10
Last Quarter
Jul 19
New
Jul 26
First Quarter
Aug 1
Full

Hourly Weather History & Observations

Time (EDT) Temp. Heat Index Dew Point Humidity Pressure Visibility Wind Dir Wind Speed Gust Speed Precip Events Conditions
12:54 AM 79.0 °F - 69.1 °F 72% 29.94 in 10.0 mi West 9.2 mph - N/A   Clear
1:54 AM 78.1 °F - 69.1 °F 74% 29.93 in 10.0 mi West 3.5 mph - N/A   Clear
2:54 AM 75.9 °F - 69.1 °F 79% 29.92 in 10.0 mi West 3.5 mph - N/A   Clear
3:54 AM 75.0 °F - 69.1 °F 82% 29.91 in 10.0 mi Calm Calm - N/A   Clear
4:54 AM 75.0 °F - 69.1 °F 82% 29.90 in 10.0 mi Calm Calm - N/A   Clear
5:54 AM 73.0 °F - 69.1 °F 87% 29.91 in 10.0 mi SW 3.5 mph - N/A   Clear
6:54 AM 73.0 °F - 69.1 °F 87% 29.92 in 7.0 mi SSW 3.5 mph - N/A   Clear
7:54 AM 78.1 °F - 70.0 °F 76% 29.93 in 8.0 mi WSW 5.8 mph - N/A   Clear
8:54 AM 82.9 °F 87.0 °F 70.0 °F 65% 29.94 in 9.0 mi West 4.6 mph - N/A   Clear
9:54 AM 89.1 °F 93.7 °F 69.1 °F 52% 29.94 in 10.0 mi WNW 6.9 mph - N/A   Clear
10:54 AM 91.9 °F 95.4 °F 66.9 °F 44% 29.94 in 10.0 mi Variable 6.9 mph - N/A   Clear
11:54 AM 95.0 °F 99.5 °F 68.0 °F 41% 29.93 in 10.0 mi Variable 4.6 mph - N/A   Partly Cloudy
12:54 PM 96.1 °F 99.3 °F 66.0 °F 37% 29.92 in 10.0 mi NNW 8.1 mph - N/A   Scattered Clouds
1:54 PM 97.0 °F 101.0 °F 66.9 °F 37% 29.88 in 10.0 mi NW 9.2 mph - N/A   Scattered Clouds
2:30 PM 96.8 °F 99.0 °F 64.4 °F 34% 29.92 in 10.0 mi NW 9.2 mph - N/A Thunderstorm Thunderstorm
2:54 PM 91.9 °F 92.5 °F 62.1 °F 37% 29.88 in 10.0 mi NNE 18.4 mph 26.5 mph N/A Thunderstorm Thunderstorm
3:40 PM 84.2 °F 89.6 °F 71.6 °F 66% 29.93 in 10.0 mi West 6.9 mph - 0.10 in   Mostly Cloudy
3:54 PM 89.1 °F 93.7 °F 69.1 °F 52% 29.88 in 10.0 mi WNW 5.8 mph - 0.10 in   Scattered Clouds
4:54 PM 93.9 °F 97.0 °F 66.0 °F 40% 29.86 in 10.0 mi WNW 15.0 mph 21.9 mph N/A   Partly Cloudy
5:54 PM 89.1 °F 92.1 °F 66.9 °F 48% 29.86 in 10.0 mi WNW 12.7 mph - 0.00 in   Partly Cloudy
6:54 PM 86.0 °F 87.3 °F 64.0 °F 48% 29.88 in 10.0 mi WNW 10.4 mph - N/A   Partly Cloudy
7:54 PM 84.0 °F 85.4 °F 64.0 °F 51% 29.88 in 10.0 mi West 10.4 mph - N/A   Clear
8:54 PM 80.1 °F 81.7 °F 64.0 °F 58% 29.90 in 10.0 mi SW 6.9 mph - N/A   Partly Cloudy
9:54 PM 79.0 °F - 64.0 °F 60% 29.90 in 10.0 mi West 3.5 mph - N/A   Clear
10:54 PM 77.0 °F - 64.0 °F 64% 29.92 in 10.0 mi Calm Calm - N/A   Clear
11:54 PM 75.9 °F - 64.0 °F 67% 29.91 in 10.0 mi NW 3.5 mph - N/A   Clear